Home > Weather > Charleston > Past weeks

Flag for USA Past Weather in Charleston, West Virginia, USA — Yesterday and Last 2 Weeks

Now
87 °F

Passing clouds.


Feels Like: 88 °F
Forecast: 65 / 88 °F
Wind: No wind

Location: Yeager Airport

Current Time: Jun 25, 2016 at 7:21:48 PM

Latest Report: Jun 25, 2016 at 6:54 PM


Visibility: 10 mi

Pressure: 30.09 "Hg

Humidity: 45%

Dew Point: 63 °F

Location of CharlestonLocation

Past Weather in Charleston — Graph

°F

Charleston Temperature Yesterday

Maximum temperature yesterday: 79 °F (at 3:54 PM)
Minimum temperature yesterday: 66 °F (at 3:54 AM)
Average temperature yesterday: 72 °F

High & Low Weather Summary for the Past Weeks

 TemperatureHumidityPressure
High91 °F (Jun 11, 4:54 PM)97% (Jun 18, 5:54 AM)30.37 "Hg (Jun 18, 5:54 AM)
Low52 °F (Jun 13, 5:54 AM)24% (Jun 19, 1:54 PM)29.62 "Hg (Jun 16, 5:54 PM)
Average74 °F70%30.00 "Hg
* Reported Jun 10 5:54 PM — Jun 25 5:54 PM, Charleston, Weather by CustomWeather, © 2016

Note: Actual official high and low records may vary slightly from our data, if they occured in-between our weather recording intervals... More about our weather records

Advertising

Charleston Weather History for the Previous 24 Hours

Scroll right to see more
 ConditionsComfort  
Time TempWeatherWind HumidityBarometerVisibility
5:54 PM
Sat, Jun 25
87 °FScattered clouds.5 mph45%30.10 "Hg10 mi
4:54 PM87 °FScattered clouds.7 mph46%30.10 "Hg10 mi
3:54 PM84 °FScattered clouds.No wind53%30.10 "Hg10 mi
2:54 PM86 °FScattered clouds.6 mph51%30.11 "Hg10 mi
1:54 PM85 °FPartly sunny.5 mph57%30.12 "Hg10 mi
12:54 PM83 °FPartly sunny.5 mph59%30.13 "Hg10 mi
11:54 AM80 °FBroken clouds.3 mph69%30.14 "Hg10 mi
10:54 AM76 °FPartly sunny.No wind80%30.14 "Hg10 mi
9:54 AM73 °FPartly sunny.No wind84%30.14 "Hg7 mi
8:54 AM71 °FFog.3 mph90%30.14 "Hg1 mi
7:54 AM69 °FFog.No wind96%30.12 "Hg1 mi
6:54 AM69 °FFog.3 mph96%30.09 "Hg1 mi
5:54 AM69 °FFog.No wind96%30.08 "Hg1 mi
4:54 AM69 °FFog.No wind96%30.07 "Hg1 mi
3:54 AM69 °FFog.3 mph96%30.06 "Hg1 mi
2:54 AM70 °FFog.No wind93%30.06 "Hg1 mi
1:54 AM70 °FFog.No wind93%30.06 "Hg1 mi
12:58 AM69 °FFog.No wind96%30.08 "Hg1 mi
11:54 PM
Fri, Jun 24
71 °FFog.No wind93%30.05 "Hg5 mi
10:54 PM72 °FFog.No wind91%30.05 "Hg6 mi
9:54 PM72 °FPassing clouds.No wind93%30.04 "Hg7 mi
8:54 PM75 °FScattered clouds.3 mph85%30.02 "Hg10 mi
7:54 PM76 °FBroken clouds.No wind82%30.01 "Hg10 mi
Weather by CustomWeather, © 2016

See weather overviewHow to use our weather pages